Elkins-Randolph Co-Jennings Randolph Field Elkins US
ICAO: KEKN
IATA: EKN
Category: Medium
Scheduled Services: No

Elevation: 1987 ft
TransAlt. 18000 ft.

Airport Communications:
CLARKSBURG APP/DEP:121.15
ASOS:119.275
CTAF:123.6
RDO:122.2

KEKN Zoom In..

If Map Doesn't Load, Click Here

Runways:

(A) RW 05 length 4501 ft width 140 ft
---- / hdg 46

(B) RW 14 length 4544 ft width 140 ft
---- / hdg 136

(C) RW 23 length 4501 ft width 140 ft
---- / hdg 226

(D) RW 32 length 4544 ft width 140 ft
---- / hdg 316

Location; KEKN
Day. 23 / Time. 07.51 Zulu
* Altimeter: 30.17
* Temperature: 16° c. 60.8°f.
* Wind from: 000° Speed 00 kn.
Dewpoint: 15° c.
Visibility: 10 Statute Miles.
Clouds: Overcast 2600 ft.

KEKN 230751Z AUTO 00000KT 10SM OVC026 16/15 A3017 RMK AO2 RAB11E20 SLP210 P0000 T01610150 TSNO


Wind - Calm.

 
 
jpsmedia.com for Web Design worldairports.se 2018   terms of use